Flag for U.S.A. Weather past 2 weeks in Austin, Texas, U.S.A.

Now
79 °F

Scattered clouds.


Feels Like: 82 °F
Forecast: 76 / 97 °F
Wind: 6 mph from Southwest

Location: Camp Mabry / Austin City

Current Time: Jul 28, 2014 at 9:51:43 AM

Latest Report: Jul 28, 2014 at 8:51 AM


Visibility: 9 mi

Pressure: 30.09 "Hg

Humidity: 79%

Dew point: 72 °F

Location of AustinLocation

Historic Weather in Austin — Graph

°F

Austin temperature yesterday

Maximum temperature yesterday: 98 °F (at 5:51 PM)
Minimum temperature yesterday: 75 °F (at 6:51 AM)
Average temperature yesterday: 86 °F

Past Weeks' High & Low Weather Summary

 TemperatureHumidityPressure
High101 °F (Jul 14, 2:51 PM)100% (Jul 18, 12:51 AM)30.09 "Hg (Jul 18, 12:51 AM)
Low70 °F (Jul 19, 6:51 AM)27% (Jul 14, 3:51 PM)29.76 "Hg (Jul 17, 5:51 PM)
Average83 °F68%29.96 "Hg
* Reported Jul 13 8:51 AM — Jul 28 8:51 AM, Austin, Weather by CustomWeather, © 2014

Note: Actual official high and low records may vary slightly from our data, if they occured in-between our weather recording intervals... More about our weather records

Advertising

Austin weather history for previous 24 hours

 ConditionsComfort  
Time TempWeatherWind HumidityBarometerVisibility
8:51 AM
Jul 28
79 °FScattered clouds.6 mph79%30.09 "Hg9 mi
7:51 AM75 °FSunny.6 mph90%30.09 "Hg9 mi
6:51 AM74 °FPassing clouds.No wind91%30.07 "Hg9 mi
5:51 AM75 °FClear.No wind88%30.05 "Hg10 mi
4:51 AM76 °FClear.No wind85%30.03 "Hg10 mi
3:51 AM77 °FClear.6 mph82%30.02 "Hg10 mi
2:51 AM78 °FClear.5 mph79%30.01 "Hg10 mi
1:51 AM80 °FClear.6 mph71%30.03 "Hg10 mi
12:51 AM82 °FClear.7 mph65%30.03 "Hg10 mi
11:51 PM
Jul 27
84 °FClear.8 mph59%30.02 "Hg10 mi
10:51 PM87 °FClear.8 mph53%30.01 "Hg10 mi
9:51 PM89 °FClear.6 mph50%29.98 "Hg10 mi
8:51 PM91 °FSunny.6 mph44%29.95 "Hg10 mi
7:51 PM93 °FSunny.5 mph40%29.94 "Hg10 mi
6:51 PM95 °FSunny.6 mph40%29.93 "Hg10 mi
5:51 PM98 °FPassing clouds.3 mph34%29.93 "Hg10 mi
4:51 PM97 °FSunny.6 mph39%29.94 "Hg10 mi
3:51 PM97 °FSunny.7 mph40%29.96 "Hg10 mi
2:51 PM95 °FSunny.6 mph43%29.98 "Hg10 mi
1:51 PM93 °FSunny.7 mph47%30.00 "Hg10 mi
12:51 PM91 °FSunny.7 mph54%30.02 "Hg10 mi
11:51 AM88 °FSunny.7 mph61%30.03 "Hg10 mi
10:51 AM84 °FScattered clouds.8 mph70%30.03 "Hg10 mi
9:51 AM82 °FScattered clouds.9 mph77%30.03 "Hg10 mi
Weather by CustomWeather, © 2014

See weather overviewHow to use our weather pages